カタログに戻る

STARLINK-11644

運用中通信VLEO
NORAD 63672·PAYLOAD·🇺🇸 United States

打ち上げ Apr 28, 2025 から Cape Canaveral Space Force Station

Loading…

次のパス (今後24時間)

TLE

最新Source: CelesTrak SupGP

元期: Sep 15, 2026, 02:55 UTC

1 63672C 25085J   26258.12201389 -.00053582  00000+0 -41615-3 0  2585
2 63672  43.0004 216.5959 0001500 264.9256 124.5196 15.70866827    13

AllMySatでSTARLINK-11644をリアルタイム追跡

Download on the App Store